This demonstration page uses our WeatherBlox Daily Observations layout. Learn more.

Left ArrowRight Arrow

Hourly Observations for May 6, 2018

Temp ( °F °C ) Dew Point ( °F °C ) Humidity (%) Winds ( mph kmh ) Pressure ( in mb ) Visibility ( mi km ) Precip ( " mm )
12:15 am 00:15 Clear 59 14.8 51 10.4 75 75 S 5 7 30.00 1016 10 16 0.00 0.00
12:35 am 00:35 Clear 59 14.8 52 11 78 78 S 5 7 30.00 1016 10 16 0.00 0.00
12:55 am 00:55 Clear 58 14.6 52 11 79 79 SSW 5 7 30.00 1016 10 16 0.00 0.00
1:15 am 01:15 Clear 57 14 51 10.7 81 81 SW 5 7 30.00 1016 10 16 0.00 0.00
1:35 am 01:35 Clear 57 14 51 10.8 81 81 SW 6 9 30.00 1016 10 16 0.00 0.00
1:55 am 01:55 Mostly Cloudy 58 14.2 52 11.1 82 82 SSW 5 7 30.00 1016 10 16 0.00 0.00
2:15 am 02:15 Partly Cloudy 57 13.8 52 11 83 83 SSW 3 6 29.97 1015 10 16 0.00 0.00
2:35 am 02:35 Partly Cloudy 56 13.3 51 10.6 84 84 S 3 6 29.97 1015 10 16 0.00 0.00
2:55 am 02:55 Partly Cloudy 55 12.9 51 10.3 84 84 S 5 7 29.97 1015 10 16 0.00 0.00
3:15 am 03:15 Mostly Cloudy 55 12.8 51 10.5 86 86 S 5 7 29.97 1015 10 16 0.00 0.00
3:35 am 03:35 Cloudy 55 12.6 50 10.2 85 85 S 5 7 29.97 1015 10 16 0.00 0.00
3:55 am 03:55 Partly Cloudy 55 12.6 51 10.7 88 88 S 3 6 29.97 1015 10 16 0.00 0.00
4:15 am 04:15 Clear 55 12.5 51 10.3 87 87 S 5 7 29.97 1015 10 16 0.00 0.00
4:35 am 04:35 Clear 54 12 50 9.9 87 87 S 3 6 30.00 1016 10 16 0.00 0.00
4:55 am 04:55 Clear 54 12.1 50 10.1 88 88 S 5 7 30.00 1016 10 16 0.00 0.00
5:15 am 05:15 Clear 53 11.5 50 9.8 89 89 S 5 7 30.00 1016 10 16 0.00 0.00
5:35 am 05:35 Clear 52 11 50 9.8 92 92 S 3 6 30.00 1016 10 16 0.00 0.00
5:55 am 05:55 Clear 53 11.6 51 10.4 92 92 SSE 3 6 30.00 1016 10 16 0.00 0.00
6:15 am 06:15 Clear 53 11.5 51 10.3 92 92 Calm 30.00 1016 10 16 0.00 0.00
6:35 am 06:35 Clear 52 11.1 50 10.2 94 94 S 3 6 30.00 1016 10 16 0.00 0.00
6:55 am 06:55 Sunny 51 10.4 49 9.7 95 95 SSE 3 6 30.00 1016 7 11 0.00 0.00
7:15 am 07:15 Sunny 51 10.4 49 9.5 94 94 S 3 6 30.00 1016 7 11 0.00 0.00
7:35 am 07:35 Sunny 53 11.5 51 10.6 94 94 S 5 7 30.00 1016 10 16 0.00 0.00
7:55 am 07:55 Sunny 55 12.6 53 11.5 93 93 S 3 6 29.97 1015 10 16 0.00 0.00
8:15 am 08:15 Sunny 57 14.1 53 11.9 87 87 SSW 5 7 29.97 1015 7 11 0.00 0.00
8:35 am 08:35 Sunny 59 14.9 53 11.6 81 81 SSW 7 11 29.97 1015 10 16 0.00 0.00
8:55 am 08:55 Sunny 60 15.8 53 11.5 76 76 SW 7 11 29.97 1015 10 16 0.00 0.00
9:15 am 09:15 Sunny 62 16.6 53 11.4 72 72 WSW 7 11 29.97 1015 10 16 0.00 0.00
9:35 am 09:35 Sunny 63 17.4 53 11.5 68 68 SW 5 7 29.97 1015 10 16 0.00 0.00
9:55 am 09:55 Sunny 65 18.4 53 11.5 64 64 WSW 6 9 29.97 1015 10 16 0.00 0.00
10:15 am 10:15 Mostly Cloudy 68 19.9 52 11.1 57 57 W 7 11 29.97 1015 10 16 0.00 0.00
10:35 am 10:35 Partly Cloudy 70 20.9 52 10.9 53 53 W 8 13 29.94 1014 10 16 0.00 0.00
10:55 am 10:55 Sunny 71 21.7 53 11.5 52 52 WSW 7 11 29.94 1014 10 16 0.00 0.00
11:15 am 11:15 Sunny 73 22.7 52 11.2 48 48 WNW 6 9 29.94 1014 10 16 0.00 0.00
11:35 am 11:35 Sunny 74 23.2 50 10 43 43 WNW 5 7 29.94 1014 10 16 0.00 0.00
11:55 am 11:55 Sunny 76 24.4 49 9.2 38 38 NW 8 13 29.94 1014 10 16 0.00 0.00
12:15 pm 12:15 Sunny 78 25.3 45 7.2 32 32 WNW 9 15 29.94 1014 10 16 0.00 0.00
12:35 pm 12:35 Sunny 79 26 45 7.3 30 30 W 13 20 29.91 1013 10 16 0.00 0.00
12:55 pm 12:55 Sunny 79 26.2 47 8.4 32 32 W 9 15 29.91 1013 10 16 0.00 0.00
1:15 pm 13:15 Sunny 79 26.2 44 6.9 29 29 WNW 12 19 29.91 1013 10 16 0.00 0.00
1:35 pm 13:35 Partly Cloudy 81 27.1 46 7.6 29 29 W 13 20 29.91 1013 10 16 0.00 0.00
1:55 pm 13:55 Partly Cloudy 80 26.4 43 6.3 28 28 NW 6 9 29.88 1012 10 16 0.00 0.00
2:15 pm 14:15 Mostly Cloudy 78 25.3 43 6 29 29 WNW 10 17 29.91 1013 10 16 0.00 0.00
2:35 pm 14:35 Cloudy with Strong Thunderstorms 64 17.5 53 11.8 69 69 NNW 14 22 29.97 1015 5 8 0.04 1.02
2:55 pm 14:55 Cloudy with Thunderstorms 62 16.7 55 12.9 78 78 N 13 20 29.97 1015 7 11 0.08 2.03
3:15 pm 15:15 Cloudy 67 19.2 54 12.3 64 64 ENE 8 13 29.97 1015 10 16 0.00 0.00
3:35 pm 15:35 Cloudy with Nearby Thunderstorms 66 19.1 56 13.5 70 70 Calm 29.97 1015 10 16 0.00 0.00
3:55 pm 15:55 Cloudy 68 20 55 13 64 64 SW 8 13 29.97 1015 10 16 0.00 0.00
4:15 pm 16:15 Cloudy 69 20.4 55 12.7 61 61 NW 8 13 29.97 1015 10 16 0.00 0.00
4:35 pm 16:35 Cloudy 71 21.6 52 11.1 51 51 NW 9 15 29.94 1014 10 16 0.00 0.00
4:55 pm 16:55 Mostly Cloudy 72 22.4 53 11.5 50 50 NW 9 15 29.91 1013 10 16 0.00 0.00
5:15 pm 17:15 Partly Cloudy 74 23.2 51 10.3 44 44 NW 10 17 29.91 1013 10 16 0.00 0.00
5:35 pm 17:35 Sunny with Nearby Thunderstorms 74 23.1 49 9.6 42 42 NW 13 20 29.91 1013 10 16 0.00 0.00
5:55 pm 17:55 Sunny 73 22.5 49 9.5 44 44 NNW 13 20 29.91 1013 10 16 0.00 0.00
6:15 pm 18:15 Sunny 73 23 49 9.5 42 42 NNW 16 26 29.91 1013 10 16 0.00 0.00
6:35 pm 18:35 Sunny 73 22.8 50 10 44 44 NNW 13 20 29.94 1014 10 16 0.00 0.00
6:55 pm 18:55 Sunny 72 22.2 50 10.1 46 46 NNW 10 17 29.94 1014 10 16 0.00 0.00
7:15 pm 19:15 Sunny 72 22.1 50 10 46 46 NNW 12 19 29.91 1013 10 16 0.00 0.00
7:35 pm 19:35 Sunny 70 21 49 9.2 47 47 NNW 10 17 29.94 1014 10 16 0.00 0.00
7:55 pm 19:55 Sunny 69 20.5 48 8.9 47 47 N 9 15 29.97 1015 10 16 0.00 0.00
8:15 pm 20:15 Sunny 69 20.4 49 9.2 49 49 NNW 9 15 29.97 1015 10 16 0.00 0.00
8:35 pm 20:35 Sunny 68 20 48 9 49 49 N 13 20 30.00 1016 10 16 0.00 0.00
8:55 pm 20:55 Clear 66 19 49 9.3 54 54 NNW 10 17 30.00 1016 10 16 0.00 0.00
9:15 pm 21:15 Clear 65 18.2 48 8.9 55 55 NNW 10 17 30.00 1016 10 16 0.00 0.00
9:35 pm 21:35 Clear 63 17.3 48 8.8 58 58 NNW 8 13 30.03 1017 10 16 0.00 0.00
9:55 pm 21:55 Clear 62 16.8 47 8.5 58 58 N 10 17 30.03 1017 10 16 0.00 0.00
10:15 pm 22:15 Clear 61 16.1 46 7.9 58 58 N 12 19 30.06 1018 10 16 0.00 0.00
10:35 pm 22:35 Clear 60 15.3 46 7.5 60 60 NNW 10 17 30.06 1018 10 16 0.00 0.00
10:55 pm 22:55 Clear 58 14.6 44 6.6 59 59 N 10 17 30.06 1018 10 16 0.00 0.00
11:15 pm 23:15 Clear 57 13.7 44 6.6 62 62 NNW 9 15 30.06 1018 10 16 0.00 0.00
11:35 pm 23:35 Clear 56 13.3 43 6.1 62 62 NNW 8 13 30.06 1018 10 16 0.00 0.00
11:55 pm 23:55 Clear 55 13 42 5.8 62 62 NNW 9 15 30.09 1019 10 16 0.00 0.00

Powered by AerisWeather